Flag Weather past 2 weeks in Suzuka, Japan

Now
62 °F

Passing clouds.


Feels Like: 62 °F
Forecast: 49 / 59 °F
Wind: 12 mph from Northwest

Location: Tsu

Current Time: Nov 27, 2014 at 4:26:22 PM

Latest Report: Nov 27, 2014 at 3:00 PM


Visibility: 25 mi

Pressure: 30.16 "Hg

Humidity: 45%

Dew point: 41 °F

Location of SuzukaLocation

Historic Weather in Suzuka — Graph

°F

Suzuka temperature yesterday

Maximum temperature yesterday: 58 °F (at 3:00 PM)
Minimum temperature yesterday: 54 °F (at 4:00 AM)
Average temperature yesterday: 56 °F

Past Weeks' High & Low Weather Summary

 TemperatureHumidityPressure
High67 °F (Nov 12, 3:00 PM)96% (Nov 26, 12:00 AM)30.37 "Hg (Nov 26, 12:00 AM)
Low40 °F (Nov 21, 7:00 AM)25% (Nov 13, 1:00 PM)29.75 "Hg (Nov 12, 3:00 PM)
Average53 °F61%30.14 "Hg
* Reported Nov 12 3:00 PM — Nov 27 3:00 PM, Suzuka, Weather by CustomWeather, © 2014

Note: Actual official high and low records may vary slightly from our data, if they occured in-between our weather recording intervals... More about our weather records

Advertising

Suzuka weather history for previous 24 hours

 ConditionsComfort  
Time TempWeatherWind HumidityBarometerVisibility
3:00 PM
Nov 27
62 °FPassing clouds.12 mph45%30.16 "Hg25 mi
2:00 PM63 °FMild.13 mph44%30.15 "HgN/A
1:00 PM63 °FMild.10 mph42%30.14 "HgN/A
11:00 AM62 °FRefreshingly cool.15 mph45%30.16 "HgN/A
10:00 AM60 °FRefreshingly cool.15 mph50%30.19 "HgN/A
9:00 AM58 °FPassing clouds.12 mph52%30.18 "Hg22 mi
8:00 AM56 °FCool.8 mph60%30.16 "HgN/A
7:00 AM53 °FCool.5 mph69%30.13 "HgN/A
6:00 AM54 °FCool.7 mph68%30.11 "HgN/A
5:00 AM55 °FCool.8 mph62%30.09 "HgN/A
4:00 AM55 °FCool.9 mph69%30.09 "HgN/A
3:00 AM54 °FCool.7 mph70%30.06 "HgN/A
2:00 AM56 °FCool.13 mph68%30.03 "HgN/A
1:00 AM56 °FCool.13 mph69%30.02 "HgN/A
12:00 AM57 °FCool.12 mph65%30.00 "HgN/A
11:00 PM
Nov 26
56 °FCool.12 mph69%29.99 "HgN/A
10:00 PM57 °FCool.12 mph70%29.98 "HgN/A
9:00 PM57 °FSprinkles. Overcast.10 mph74%29.96 "Hg9 mi
8:00 PM57 °FCool.9 mph72%29.95 "HgN/A
7:00 PM57 °FCool.10 mph73%29.93 "HgN/A
6:00 PM57 °FCool.7 mph78%29.92 "HgN/A
5:00 PM57 °FCool.6 mph78%29.90 "HgN/A
4:00 PM58 °FCool.3 mph82%29.89 "HgN/A
Weather by CustomWeather, © 2014

See weather overviewHow to use our weather pages